Weather in Pisano

Italy     45°47′23″N   8°30′24″E
temp.,
°C
wind,
m/s
gust,
m/s
humid.,
%
clouds,
%
prec.,
mm/h
press.,
hPa
HPBL,
m
19 april, mon
mon1923:00+7nw118289 0.2 101815
02:00+7nw1188100 0.8 101827
05:00+5n238587 0.2 101760
08:00+5n2375100 0.2 101796
11:00+11sse1152100 0.0 1016858
14:00+14sse224598 0.0 10151629
17:00+14ssw224522 0.0 10131498
20:00+10w116451 0.1 101411
20 april, tue
tue2023:00+7nnw228195 0.3 101623
02:00+6nnw237760 0.3 101649
05:00+4nnw22737 0.0 101637
08:00+7nnw126633 0.0 101677
11:00+13sse214415 0.0 1016781
14:00+15s22445 0.0 10141539
17:00+16s33435 0.1 10121820
20:00+11sw257555 0.6 1014114
21 april, wed
wed2123:00+8nnw119051 0.5 101621
02:00+7n119242 0.6 101713
05:00+6n229110 0.1 101827
08:00+7nne128414 0.1 1018103
11:00+12se226638 0.0 1018904
14:00+15s335152 0.3 10171736
17:00+15s335099 0.1 10161755
20:00+10sw238694 1.5 101755
22 april, thu
thu2223:00+10wnw118699 0.7 101816
02:00+9n2289100 0.9 101826
05:00+7nnw229079 0.0 101716
08:00+9nw118456 0.0 101856
11:00+12s227192 0.5 1017735
14:00+14ssw226224 1.2 10161170
17:00+16ssw325143 0.1 10131528
20:00+12wsw11725 0.1 101315
23 april, fri
fri2323:00+9nw11825 0.0 101619
02:00+7n238118 0.0 101645
05:00+6n23723 0.0 101659
08:00+8n24642 0.0 1018124
11:00+12e446462 0.0 10191019
14:00+8ese248399 0.2 1021620
17:00+12se116590 0.0 10191046
20:00+10sse1172100 0.1 102041